Miscellaneous Local Product
Issued by NWS North Platte, NE

Home | Current Version | Previous Version | Graphics & Text | Print | Product List | Glossary On
Versions: 1 2 3 4 5 6 7 8 9 10 11 12 13 14 15 16 17 18 19 20 21 22 23 24 25 26 27 28 29 30 31 32 33 34 35 36 37 38 39 40 41 42 43 44 45 46 47 48 49 50
000
AXUS43 KLBF 190010
MISLBF


WESTERN AND NORTH CENTRAL NEBRASKA HOURLY WEATHER ROUNDUP
NATIONAL WEATHER SERVICE NORTH PLATTE NE
700 PM CDT SAT OCT 18 2014

***STATIONS NOT REPORTING VARIABLES SUCH AS SKY/WEATHER OR
PRESSURE ARE PROVIDED BY THE NEBRASKA DEPARTMENT OF
ROADS...RAWS...AND APRS NETWORKS...AND ARE NOT UNDER
NATIONAL WEATHER SERVICE QUALITY CONTROL***

...OBSERVATIONS IN AND NEAR THE EASTERN PANHANDLE OF NEBRASKA...

CITY           SKY/WX    TMP DP  RH WIND       PRES   REMARKS
PINE RIDGE     CLEAR     65  44  46 S12       29.95F
CHADRON        CLEAR     67  43  41 S12       29.93F
ALLIANCE       CLEAR     62  42  47 S12       29.99S
SIDNEY         PTCLDY    62  40  44 S13       30.03F
WHITECLAY        N/A     66  43  42 S9          N/A
RUSHVILLE        N/A     65  31  27 S18         N/A
LISCO            N/A     67  39  35 E9          N/A
BIG SPRINGS      N/A     69  44  41 S9          N/A
LEWELLEN         N/A     71  36  28 SE8         N/A
$$

...OBSERVATIONS IN NORTH CENTRAL NEBRASKA...

CITY           SKY/WX    TMP DP  RH WIND       PRES   REMARKS
VALENTINE      CLEAR     64  38  38 S15       30.00F
THEDFORD       CLEAR     62  40  45 S10       30.05F
AINSWORTH      CLEAR     58  39  50 S7        30.03S
O`NEILL        PTCLDY    55  40  56 S9        30.09S
ORD            CLEAR     55  40  56 E9        30.09F
BROKEN BOW     CLEAR     59  41  51 S9        30.08F
BROWNLEE         N/A     63  33  32 S14         N/A
SPRINGVIEW       N/A     65  42  43 S6          N/A
BREWSTER         N/A     62  42  47 S9          N/A
ROSE             N/A     60  45  55 E8          N/A
NEWPORT          N/A     58  41  54 S9          N/A
SARGENT          N/A     57  42  58 CALM        N/A
COMSTOCK         N/A     57  43  59 S7          N/A
CHAMBERS         N/A     52  37  57 E6          N/A
$$

...OBSERVATIONS IN SOUTHWEST NEBRASKA AND FAR NORTHEAST COLORADO...

CITY           SKY/WX    TMP DP  RH WIND       PRES   REMARKS
WRAY           FAIR      63  39  41 S12G18    30.06F
HOLYOKE        FAIR      64  39  39 S13       30.05S
IMPERIAL       CLEAR     63  39  41 S15       30.06F
OGALLALA       CLEAR     64  43  46 S9G16     30.04S
NORTH PLATTE   CLEAR     61  40  45 S10       30.06F
MCCOOK         CLEAR     61  40  45 S9        30.10F
LEXINGTON      CLEAR     58  41  52 S9        30.10F
PAXTON           N/A     67  42  41 S14         N/A
SUTHERLAND       N/A     61  33  34 S9          N/A
BRADY            N/A     62  42  48 CALM        N/A
GOTHENBURG       N/A     64  38  38 S8          N/A
CALLAWAY         N/A     63  44  49 S16         N/A
$$

...SOME WEATHER OBSERVATIONS FROM AROUND THE REGION...

CITY           SKY/WX    TMP DP  RH WIND       PRES   REMARKS
DENVER         MOCLDY    64  40  41 NE6       30.05S
LARAMIE        PTCLDY    61  29  29 N8        30.12S
CHEYENNE       PTCLDY    60  35  39 SW9       30.08S
SCOTTSBLUFF    PTCLDY    65  43  44 SE8       29.98F
RAPID CITY     PTCLDY    62  42  47 E5        29.93F
PIERRE         MOCLDY    59  40  49 SE16G25   29.93F
WINNER         FAIR      65  38  36 S15       29.99F
SIOUX FALLS    PTCLDY    49  39  68 S7        30.11F
OMAHA          PTCLDY    53  41  63 SE6       30.18F
GRAND ISLAND   CLEAR     51  38  60 SE7       30.14F
KANSAS CITY    PTCLDY    56  42  59 NE3       30.19S
WICHITA        MOCLDY    61  41  47 CALM      30.16F
HAYS           PTCLDY    55  43  62 SE7       30.15F
LIBERAL        CLOUDY    63  37  39 SE14      30.13F
GOODLAND       PTCLDY    57  42  57 SE14      30.10F
$$



USA.gov is the U.S. government's official web portal to all federal, state and local government web resources and services.